Observations for Trim Market St
| Time | AQI | Temp °C | Hum % | Pres Pa | CO μg/m³ | H₂S μg/m³ | NO μg/m³ | NO₂ μg/m³ | O₃ μg/m³ | SO₂ μg/m³ | PM1 μg/m³ | PM2.5 μg/m³ | PM10 μg/m³ |
|---|---|---|---|---|---|---|---|---|---|---|---|---|---|
| Wednesday 26 August 2026 | |||||||||||||
| 04:54 | 1 | 16.7 | 85 | 2,147,483,647 | 0.27 | 0 | 1.35 | 13.74 | 42.35 | 0 | 4.99 | 6.98 | 11.82 |
| 04:52 | 1 | 16.7 | 85 | 2,147,483,647 | 0.27 | 0 | 1.4 | 15.02 | 36.01 | 0 | 5.7 | 6.52 | 10.21 |
| 04:51 | 1 | 16.7 | 85 | 2,147,483,647 | 0.28 | 0 | 1.35 | 13.39 | 36.3 | 0 | 4.99 | 5.59 | 10.21 |
| 04:49 | 1 | 16.7 | 85 | 2,147,483,647 | 0.28 | 0 | 1.44 | 14.37 | 36.59 | 0 | 7.13 | 7.9 | 12.36 |
| 04:48 | 1 | 16.8 | 85 | 2,147,483,647 | 0.27 | 0 | 1.33 | 18.68 | 40.36 | 0 | 6.41 | 7.44 | 12.36 |
| 04:36 | 1 | 16.8 | 85 | 2,147,483,647 | 0.3 | 0 | 1.39 | 14.49 | 31.56 | 0 | 5.7 | 7.44 | 12.89 |
| 04:35 | 1 | 16.8 | 85 | 2,147,483,647 | 0.29 | 0 | 1.39 | 15.24 | 37 | 0 | 5.7 | 6.51 | 11.28 |
| 04:34 | 1 | 16.8 | 85 | 2,147,483,647 | 0.3 | 0 | 1.42 | 13.94 | 30.75 | 0 | 4.99 | 5.58 | 10.75 |
| 04:32 | 1 | 16.8 | 85 | 2,147,483,647 | 0.29 | 0 | 1.47 | 14.49 | 35.02 | 0 | 4.99 | 8.37 | 12.36 |
| 04:31 | 1 | 16.8 | 85 | 2,147,483,647 | 0.3 | 0 | 1.4 | 16.74 | 36.56 | 0 | 5.7 | 7.43 | 11.81 |
| 04:30 | 1 | 16.8 | 85 | 2,147,483,647 | 0.3 | 0 | 1.26 | 14.15 | 34.7 | 0 | 6.41 | 6.98 | 11.28 |
| 04:28 | 1 | 16.7 | 85 | 2,147,483,647 | 0.31 | 0 | 1.36 | 14.28 | 32.67 | 0 | 5.7 | 6.51 | 10.21 |
| 04:27 | 1 | 16.8 | 85 | 2,147,483,647 | 0.3 | 0 | 1.3 | 18.06 | 32.55 | 0 | 5.7 | 6.97 | 11.81 |
| 04:26 | 1 | 16.7 | 85 | 2,147,483,647 | 0.3 | 0 | 1.41 | 15.06 | 35.23 | 0 | 5.7 | 6.04 | 9.67 |
| 04:24 | 1 | 16.7 | 85 | 2,147,483,647 | 0.3 | 0 | 1.41 | 14.64 | 30.05 | 0 | 4.99 | 6.04 | 9.67 |
| 04:20 | 2 | 16.7 | 85 | 2,147,483,647 | 0.3 | 0 | 1.28 | 14.38 | 33.22 | 0 | 5.7 | 6.98 | 11.28 |
| 04:19 | 2 | 16.8 | 85 | 2,147,483,647 | 0.29 | 0 | 1.15 | 15.07 | 35.4 | 0 | 5.7 | 6.27 | 10.21 |
| 04:16 | 2 | 16.7 | 85 | 2,147,483,647 | 0.29 | 0 | 0.99 | 14.29 | 33.24 | 0 | 6.41 | 6.97 | 11.81 |
| 04:10 | 2 | 16.7 | 85 | 2,147,483,647 | 0.3 | 0 | 1.45 | 15.23 | 33.28 | 0 | 4.28 | 5.12 | 9.68 |
| 04:06 | 2 | 16.7 | 85 | 2,147,483,647 | 0.3 | 0 | 1.43 | 16.62 | 29.76 | 0 | 4.99 | 5.12 | 9.14 |